Location: Newark
(21.1200°N, 73.4000°E)
Time: 01:09:05
(UTC+00:00)

Explorer 11/Cluster Stage 4 - Pass Details

Date: 23 January 2020
Orbit: 467 x 1259 km, 28.8° (Epoch: 19 February)

Event Time Altitude Azimuth Distance (km) Brightness Sun altitude
Rises 14:15:36 0° 291° (WNW) 3,701 10.9 -19.8°
Reaches altitude 10° 14:18:34 10° 294° (WNW) 2,618 10.0 -20.4°
Maximum altitude 14:24:45 67° 17° (NNE) 834 6.5 -21.8°
Enters shadow 14:25:50 53° 72° (ENE) 913 6.5 -22.1°
Drops below altitude 10° 14:29:37 10° 100° (E) 2,072 - -23.0°
Sets 14:31:45 0° 103° (ESE) 2,877 - -23.4°
